Rifle, CO

2:40 PM MST on February 12, 2016 (GMT -0700)
Garfield County Regional

Weather History for KRIL - October, 2011

Change the Weather History Date:

Wednesday, October 19, 2011

  Actual Average Record
Temperature  
Mean Temperature 46 °F 48 °F  
Max Temperature 66 °F 63 °F 81 °F (1940)
Min Temperature 27 °F 33 °F 13 °F (1976)
Degree Days  
Heating Degree Days 18 17  
Month to date heating degree days 258  
Since 1 July heating degree days 404  
Cooling Degree Days 0 0  
Month to date cooling degree days 0  
Year to date cooling degree days 541  
Moisture  
Dew Point 20 °F    
Average Humidity 44    
Maximum Humidity 75    
Minimum Humidity 13    
Precipitation  
Precipitation 0.00 in 0.06 in 1.29 in (1990)
Month to date precipitation 1.14  
Year to date precipitation 11.61  
Sea Level Pressure  
Sea Level Pressure 30.11 in    
Wind  
Wind Speed 3 mph (SSE)    
Max Wind Speed 15 mph    
Max Gust Speed 20 mph    
Visibility 10 miles    
Events      
T = Trace of Precipitation, MM = Missing Value Source: NWS Daily Summary

Daily Weather History Graph

Daily Weather History Graph

Search for Another Location

Airport or City:

Trip Planner

Search our weather history database for the weather conditions in past years. The results will help you decide how hot, cold, wet, or windy it might be!

Date:

Astronomy

Oct. 19, 2011 Rise Set
Actual Time 7:24 AM MDT 6:26 PM MDT
Civil Twilight 6:57 AM MDT 6:53 PM MDT
Nautical Twilight 6:26 AM MDT 7:24 PM MDT
Astronomical Twilight 5:55 AM MDT 7:55 PM MDT
Moon No Moon Rise 1:57 PM MDT (10/19)
Length of Visible Light 11h 55m
Length of Day
11h 01m
Waning Gibbous, 54% of the Moon is Illuminated
Oct 19
Waning Gibbous
Oct 19
Last Quarter
Oct 26
New
Nov 2
First Quarter
Nov 10
Full

Hourly Weather History & Observations

Time (MDT) Temp. Windchill Dew Point Humidity Pressure Visibility Wind Dir Wind Speed Gust Speed Precip Events Conditions
12:53 AM 36.0 °F - 24.1 °F 62% 30.28 in 10.0 mi Calm Calm - N/A   Clear
1:53 AM 32.0 °F 28.7 °F 21.9 °F 66% 30.28 in 10.0 mi South 3.5 mph - N/A   Clear
2:53 AM 30.9 °F 27.5 °F 21.9 °F 69% 30.26 in 10.0 mi East 3.5 mph - N/A   Clear
3:53 AM 30.0 °F - 21.0 °F 69% 30.25 in 10.0 mi Calm Calm - N/A   Clear
4:53 AM 28.9 °F - 21.0 °F 72% 30.25 in 10.0 mi Calm Calm - N/A   Clear
5:53 AM 28.0 °F 21.7 °F 19.9 °F 72% 30.26 in 10.0 mi East 5.8 mph - N/A   Clear
6:53 AM 27.0 °F 20.5 °F 19.9 °F 75% 30.27 in 10.0 mi SSE 5.8 mph - N/A   Clear
7:53 AM 28.9 °F 23.9 °F 21.0 °F 72% 30.26 in 10.0 mi SSE 4.6 mph - N/A   Clear
10:53 AM 46.9 °F - 23.0 °F 39% 30.18 in 10.0 mi Calm Calm - N/A   Clear
11:53 AM 53.1 °F - 23.0 °F 31% 30.13 in 10.0 mi Calm Calm - N/A   Clear
12:53 PM 57.0 °F - 21.9 °F 26% 30.09 in 10.0 mi Calm Calm - N/A   Clear
1:53 PM 61.0 °F - 16.0 °F 17% 30.02 in 10.0 mi Calm Calm - N/A   Clear
2:53 PM 64.0 °F - 16.0 °F 16% 29.97 in 10.0 mi Calm Calm - N/A   Clear
3:53 PM 66.0 °F - 14.0 °F 13% 29.96 in 10.0 mi West 5.8 mph - N/A   Clear
4:53 PM 66.9 °F - 19.0 °F 16% 29.94 in 10.0 mi West 13.8 mph 19.6 mph N/A   Clear
5:53 PM 64.0 °F - 19.0 °F 18% 29.95 in 10.0 mi West 15.0 mph - N/A   Clear
6:53 PM 59.0 °F - 19.9 °F 22% 29.99 in 10.0 mi Calm Calm - N/A   Clear
7:53 PM 48.9 °F - 19.9 °F 32% 30.02 in 10.0 mi South 9.2 mph - N/A   Clear
8:53 PM 46.9 °F - 21.9 °F 37% 30.01 in 10.0 mi East 8.1 mph - N/A   Clear
9:53 PM 45.0 °F 42.6 °F 21.9 °F 40% 30.01 in 10.0 mi East 4.6 mph - N/A   Clear
10:53 PM 42.1 °F - 21.9 °F 45% 30.03 in 10.0 mi Calm Calm - N/A   Clear
11:53 PM 37.0 °F 33.3 °F 21.0 °F 52% 30.04 in 10.0 mi SSE 4.6 mph - N/A   Clear